Tracking 28790 objects as of 18-Apr-2024
HD Live streaming from Space Station
objects crossing your sky now

OPS 1264 (DMSP 4A F4)

Track OPS 1264 (DMSP 4A F4) now!
10-day predictions
OPS 1264 (DMSP 4A F4) is classified as:


NORAD ID: 2980
Int'l Code: 1967-096A
Perigee: 629.1 km
Apogee: 765.2 km
Inclination: 99.2 °
Period: 98.6 minutes
Semi major axis: 7068 km
RCS: 0.6338 m2 (medium)
Launch date: October 11, 1967
Source: United States (US)
Launch site: AIR FORCE WESTERN TEST RANGE (AFWTR)
Your satellite tracking list
Your tracking list is empty




NASA's NSSDC Master Catalog

Two Line Element Set (TLE):
1 02980U 67096A   24108.90457988  .00003094  00000-0  60294-3 0  9992
2 02980  99.2205  82.6827 0096223 353.3078   6.6827 14.60982834971632
Source of the keplerian elements: AFSPC